When you browse on this site, cookies collect data to enhance your experience and personalize the content and advertising you see.
Visit our Privacy Policy to learn more. By continuing to use the site, you agree to this use of cookies and data.
  • In Switzerland
  • List of Countries
  • For 7 days
  • Water Temperature
  • Weather Map
  • Weather Widgets
  • user-avatar
    Login

    Hourly Weather Georgetown

    Today, 24 September, Tuesday

    Time Temperature Precipitation Wind Pressure Humidity
    00:00 +27°C° 0 mm 2 mps 759 mmHg 88%
    01:00 +27°C° 0 mm 2 mps 759 mmHg 88%
    02:00 +27°C° 0 mm 1 mps 758 mmHg 89%
    03:00 +27°C° 0 mm 1 mps 758 mmHg 89%
    04:00 +26°C° 0 mm 1 mps 759 mmHg 90%
    05:00 +26°C° 0 mm 1 mps 759 mmHg 90%
    06:00 +28°C° 0 mm 1 mps 759 mmHg 83%
    07:00 +29°C° 0 mm 1 mps 760 mmHg 77%
    08:00 +31°C° 0 mm 1 mps 760 mmHg 71%
    09:00 +32°C° 0.1 mm 1 mps 760 mmHg 66%
    10:00 +34°C° 0.1 mm 2 mps 760 mmHg 61%
    11:00 +35°C° 0.1 mm 3 mps 760 mmHg 56%
    12:00 +35°C° 0.1 mm 3 mps 759 mmHg 56%
    13:00 +35°C° 0.1 mm 3 mps 759 mmHg 55%
    14:00 +34°C° 0.1 mm 3 mps 758 mmHg 55%
    15:00 +33°C° 0 mm 3 mps 758 mmHg 60%
    16:00 +31°C° 0 mm 3 mps 758 mmHg 66%
    17:00 +30°C° 0 mm 3 mps 758 mmHg 71%
    18:00 +29°C° 0 mm 3 mps 758 mmHg 77%
    19:00 +28°C° 0 mm 3 mps 759 mmHg 83%
    20:00 +28°C° 0 mm 2 mps 759 mmHg 89%
    21:00 +27°C° 0 mm 3 mps 759 mmHg 90%
    22:00 +27°C° 0 mm 3 mps 760 mmHg 91%
    23:00 +27°C° 0 mm 3 mps 760 mmHg 92%

    Tomorrow, 25 September, Wednesday

    Time Temperature Precipitation Wind Pressure Humidity
    00:00 +27°C° 0 mm 3 mps 759 mmHg 92%
    01:00 +27°C° 0 mm 2 mps 759 mmHg 93%
    02:00 +27°C° 0 mm 2 mps 759 mmHg 93%
    03:00 +27°C° 0 mm 2 mps 759 mmHg 93%
    04:00 +27°C° 0 mm 2 mps 759 mmHg 93%
    05:00 +27°C° 0 mm 2 mps 759 mmHg 93%
    06:00 +28°C° 0 mm 2 mps 760 mmHg 86%
    07:00 +30°C° 0 mm 2 mps 760 mmHg 80%
    08:00 +31°C° 0 mm 3 mps 760 mmHg 73%
    09:00 +33°C° 0 mm 3 mps 760 mmHg 67%
    10:00 +34°C° 0 mm 3 mps 760 mmHg 62%
    11:00 +35°C° 0 mm 3 mps 760 mmHg 57%
    12:00 +35°C° 0.2 mm 3 mps 759 mmHg 57%
    13:00 +35°C° 0.2 mm 3 mps 758 mmHg 57%
    14:00 +35°C° 0.2 mm 3 mps 757 mmHg 57%
    15:00 +34°C° 0 mm 3 mps 757 mmHg 62%
    16:00 +33°C° 0 mm 3 mps 757 mmHg 67%
    17:00 +31°C° 0 mm 3 mps 757 mmHg 72%
    18:00 +30°C° 0 mm 3 mps 758 mmHg 77%
    19:00 +29°C° 0 mm 3 mps 758 mmHg 83%
    20:00 +27°C° 0 mm 3 mps 758 mmHg 88%
    21:00 +27°C° 0 mm 2 mps 758 mmHg 90%
    22:00 +27°C° 0 mm 2 mps 759 mmHg 91%
    23:00 +27°C° 0 mm 2 mps 759 mmHg 93%

    Day after tomorrow, 26 September, Thursday

    Time Temperature Precipitation Wind Pressure Humidity
    00:00 +27°C° 0 mm 2 mps 758 mmHg 93%
    01:00 +27°C° 0 mm 2 mps 758 mmHg 93%
    02:00 +27°C° 0 mm 1 mps 758 mmHg 93%
    03:00 +27°C° 0 mm 2 mps 758 mmHg 92%
    04:00 +27°C° 0 mm 2 mps 758 mmHg 91%
    05:00 +27°C° 0 mm 2 mps 758 mmHg 90%
    06:00 +29°C° 0.5 mm 2 mps 759 mmHg 86%
    07:00 +30°C° 0.5 mm 2 mps 759 mmHg 82%
    08:00 +31°C° 0.5 mm 2 mps 760 mmHg 78%
    09:00 +32°C° 0.1 mm 2 mps 759 mmHg 70%
    10:00 +34°C° 0.1 mm 3 mps 759 mmHg 63%
    11:00 +35°C° 0.1 mm 3 mps 759 mmHg 55%
    12:00 +35°C° 0 mm 3 mps 759 mmHg 56%
    13:00 +35°C° 0 mm 3 mps 758 mmHg 57%
    14:00 +35°C° 0 mm 4 mps 757 mmHg 58%
    15:00 +34°C° 0 mm 4 mps 757 mmHg 62%
    16:00 +33°C° 0 mm 4 mps 757 mmHg 67%
    17:00 +31°C° 0 mm 3 mps 757 mmHg 71%
    18:00 +30°C° 0 mm 3 mps 757 mmHg 76%
    19:00 +29°C° 0 mm 3 mps 757 mmHg 82%
    20:00 +28°C° 0 mm 3 mps 757 mmHg 87%
    21:00 +28°C° 0.1 mm 3 mps 758 mmHg 88%
    22:00 +28°C° 0.1 mm 3 mps 758 mmHg 89%
    23:00 +27°C° 0.1 mm 3 mps 758 mmHg 91%

    27 September, Friday

    Time Temperature Precipitation Wind Pressure Humidity
    00:00 +27°C° 0.5 mm 3 mps 758 mmHg 91%
    01:00 +27°C° 0.5 mm 3 mps 758 mmHg 92%
    02:00 +27°C° 0.5 mm 3 mps 757 mmHg 93%
    03:00 +27°C° 0.7 mm 3 mps 758 mmHg 93%
    04:00 +27°C° 0.7 mm 3 mps 758 mmHg 93%
    05:00 +27°C° 0.7 mm 3 mps 758 mmHg 93%
    06:00 +28°C° 1.1 mm 3 mps 758 mmHg 90%
    07:00 +29°C° 1.1 mm 3 mps 759 mmHg 87%
    08:00 +30°C° 1.1 mm 3 mps 759 mmHg 84%
    09:00 +30°C° 0.7 mm 3 mps 759 mmHg 82%
    10:00 +30°C° 0.7 mm 3 mps 759 mmHg 79%
    11:00 +31°C° 0.7 mm 3 mps 759 mmHg 77%
    12:00 +31°C° 0.4 mm 3 mps 759 mmHg 74%
    13:00 +31°C° 0.4 mm 3 mps 758 mmHg 71%
    14:00 +33°C° 0.4 mm 3 mps 757 mmHg 68%
    15:00 +31°C° 0 mm 3 mps 757 mmHg 70%
    16:00 +31°C° 0 mm 3 mps 757 mmHg 71%
    17:00 +30°C° 0 mm 3 mps 757 mmHg 73%
    18:00 +29°C° 0 mm 3 mps 757 mmHg 77%
    19:00 +28°C° 0 mm 2 mps 757 mmHg 82%
    20:00 +27°C° 0 mm 2 mps 757 mmHg 87%
    21:00 +27°C° 0 mm 2 mps 757 mmHg 88%
    22:00 +27°C° 0 mm 2 mps 758 mmHg 89%
    23:00 +27°C° 0 mm 2 mps 758 mmHg 90%

    28 September, Saturday

    Time Temperature Precipitation Wind Pressure Humidity
    00:00 +27°C° 0.4 mm 2 mps 758 mmHg 91%
    01:00 +27°C° 0.4 mm 2 mps 757 mmHg 92%
    02:00 +26°C° 0.4 mm 2 mps 757 mmHg 93%
    03:00 +26°C° 0.6 mm 2 mps 757 mmHg 94%
    04:00 +26°C° 0.6 mm 2 mps 757 mmHg 94%
    05:00 +26°C° 0.6 mm 2 mps 757 mmHg 95%
    06:00 +27°C° 0.9 mm 2 mps 758 mmHg 92%
    07:00 +28°C° 0.9 mm 2 mps 758 mmHg 90%
    08:00 +29°C° 0.9 mm 3 mps 759 mmHg 88%
    09:00 +30°C° 0.5 mm 3 mps 759 mmHg 83%
    10:00 +30°C° 0.5 mm 3 mps 759 mmHg 79%
    11:00 +31°C° 0.5 mm 3 mps 759 mmHg 75%
    12:00 +33°C° 0.3 mm 3 mps 758 mmHg 70%
    13:00 +33°C° 0.3 mm 3 mps 757 mmHg 65%
    14:00 +34°C° 0.3 mm 3 mps 756 mmHg 60%
    15:00 +33°C° 0 mm 3 mps 756 mmHg 64%
    16:00 +31°C° 0 mm 3 mps 756 mmHg 69%
    17:00 +30°C° 0 mm 3 mps 756 mmHg 74%
    18:00 +29°C° 0 mm 3 mps 756 mmHg 79%
    19:00 +28°C° 0 mm 3 mps 757 mmHg 84%
    20:00 +27°C° 0 mm 3 mps 757 mmHg 89%
    21:00 +27°C° 0 mm 3 mps 757 mmHg 89%
    22:00 +27°C° 0 mm 3 mps 757 mmHg 90%
    23:00 +27°C° 0 mm 3 mps 757 mmHg 90%

    29 September, Sunday

    Time Temperature Precipitation Wind Pressure Humidity
    00:00 +27°C° 0.4 mm 3 mps 757 mmHg 91%
    01:00 +27°C° 0.4 mm 3 mps 756 mmHg 92%
    02:00 +27°C° 0.4 mm 3 mps 756 mmHg 93%
    03:00 +27°C° 0.6 mm 3 mps 756 mmHg 93%
    04:00 +27°C° 0.6 mm 3 mps 756 mmHg 93%
    05:00 +27°C° 0.6 mm 3 mps 757 mmHg 93%
    06:00 +28°C° 0.7 mm 3 mps 757 mmHg 91%
    07:00 +29°C° 0.7 mm 3 mps 758 mmHg 88%
    08:00 +30°C° 0.7 mm 4 mps 758 mmHg 86%
    09:00 +30°C° 1 mm 4 mps 758 mmHg 85%
    10:00 +30°C° 1 mm 4 mps 758 mmHg 83%
    11:00 +32°C° 1 mm 4 mps 757 mmHg 81%
    12:00 +33°C° 0.5 mm 4 mps 757 mmHg 74%
    13:00 +33°C° 0.5 mm 4 mps 756 mmHg 67%
    14:00 +34°C° 0.5 mm 4 mps 755 mmHg 60%
    15:00 +33°C° 0 mm 4 mps 755 mmHg 65%
    16:00 +32°C° 0 mm 4 mps 755 mmHg 69%
    17:00 +30°C° 0 mm 3 mps 755 mmHg 74%
    18:00 +29°C° 0 mm 4 mps 755 mmHg 78%
    19:00 +29°C° 0 mm 4 mps 756 mmHg 81%
    20:00 +28°C° 0 mm 4 mps 756 mmHg 85%
    21:00 +28°C° 0.1 mm 4 mps 756 mmHg 85%
    22:00 +28°C° 0.1 mm 4 mps 756 mmHg 86%
    23:00 +28°C° 0.1 mm 5 mps 756 mmHg 86%
    Show more